Weather History for KFRI - November, 2012

Change the Weather History Date:

Monday, November 19, 2012

  Actual Average (KMHK) Record (KMHK)
Temperature  
Mean Temperature 54 °F 41 °F  
Max Temperature 68 °F 53 °F - ()
Min Temperature 40 °F 29 °F - ()
Degree Days  
Heating Degree Days 10 24  
Month to date heating degree days 380  
Since 1 July heating degree days 779  
Cooling Degree Days 0 0  
Month to date cooling degree days 0  
Year to date cooling degree days 1361  
Growing Degree Days 4 (Base 50)    
Moisture  
Dew Point 43 °F    
Average Humidity 71    
Maximum Humidity 100    
Minimum Humidity 37    
Precipitation  
Precipitation 0.00 in 0.05 in - ()
Month to date precipitation 1.17  
Year to date precipitation 31.10  
Sea Level Pressure  
Sea Level Pressure 30.10 in    
Wind  
Wind Speed 8 mph (SW)    
Max Wind Speed 16 mph    
Max Gust Speed -    
Visibility 10 miles    
Events      
T = Trace of Precipitation, MM = Missing Value Source: NWS Daily Summary

Daily Weather History Graph

Daily Weather History Graph

Search for Another Location

Airport or City:

Trip Planner

Search our weather history database for the weather conditions in past years. The results will help you decide how hot, cold, wet, or windy it might be!

Date:

Astronomy

Nov. 19, 2012 Rise Set
Actual Time 7:15 AM CST 5:09 PM CST
Civil Twilight 6:46 AM CST 5:38 PM CST
Nautical Twilight 6:13 AM CST 6:11 PM CST
Astronomical Twilight 5:41 AM CST 6:42 PM CST
Moon 12:19 PM CST (11/19) 11:36 PM CST (11/19)
Length of Visible Light 10h 52m
Length of Day
9h 54m
Waxing Crescent, 41% of the Moon is Illuminated
Nov 19
Waxing Crescent
Nov 20
First Quarter
Nov 28
Full
Dec 6
Last Quarter
Dec 13
New

Hourly Weather History & Observations

Time (CST) Temp. Windchill Dew Point Humidity Pressure Visibility Wind Dir Wind Speed Gust Speed Precip Events Conditions
12:55 AM 53.8 °F - 38.8 °F 57% 30.06 in 10.0 mi South 12.7 mph - N/A   Partly Cloudy
1:55 AM 51.1 °F - 40.5 °F 67% 30.05 in 10.0 mi SSW 8.1 mph - N/A   Clear
2:55 AM 49.6 °F - 42.6 °F 77% 30.06 in 10.0 mi SSW 6.9 mph - N/A   Clear
3:55 AM 47.7 °F - 43.9 °F 87% 30.06 in 10.0 mi Variable 3.5 mph - N/A   Clear
4:55 AM 45.5 °F 43.2 °F 45.3 °F 99% 30.08 in 10.0 mi SSW 4.6 mph - N/A   Clear
5:55 AM 45.1 °F 42.0 °F 45.0 °F 99% 30.09 in 10.0 mi SSW 5.8 mph - N/A   Clear
6:55 AM 42.3 °F 39.4 °F 42.3 °F 100% 30.10 in 10.0 mi SW 4.6 mph - N/A   Clear
7:55 AM 42.8 °F 40.1 °F 42.8 °F 100% 30.11 in 10.0 mi SSW 4.6 mph - N/A   Clear
8:55 AM 49.8 °F - 46.0 °F 87% 30.11 in 10.0 mi SSW 10.4 mph - N/A   Clear
9:55 AM 54.9 °F - 44.4 °F 68% 30.12 in 10.0 mi SW 16.1 mph - N/A   Clear
10:55 AM 58.6 °F - 45.0 °F 60% 30.12 in 10.0 mi SW 13.8 mph - N/A   Clear
11:55 AM 62.2 °F - 45.5 °F 54% 30.08 in 10.0 mi SSW 10.4 mph - N/A   Clear
12:55 PM 64.9 °F - 44.4 °F 47% 30.06 in 10.0 mi WSW 10.4 mph - N/A   Clear
1:55 PM 66.7 °F - 43.2 °F 42% 30.06 in 10.0 mi WSW 9.2 mph - N/A   Clear
2:55 PM 68.0 °F - 41.7 °F 38% 30.06 in 10.0 mi WSW 5.8 mph - N/A   Clear
3:55 PM 68.2 °F - 40.6 °F 37% 30.07 in 10.0 mi West 4.6 mph - N/A   Clear
4:55 PM 62.8 °F - 41.9 °F 46% 30.08 in 10.0 mi WSW 4.6 mph - N/A   Clear
5:55 PM 60.3 °F - 40.6 °F 48% 30.09 in 10.0 mi SSW 4.6 mph - N/A   Clear
6:55 PM 54.9 °F - 41.5 °F 61% 30.13 in 10.0 mi South 4.6 mph - N/A   Clear
7:55 PM 48.2 °F - 40.1 °F 74% 30.14 in 10.0 mi WSW 3.5 mph - N/A   Clear
8:55 PM 46.9 °F - 40.5 °F 78% 30.14 in 10.0 mi SW 4.6 mph - N/A   Clear
9:55 PM 45.3 °F 42.3 °F 41.5 °F 87% 30.15 in 10.0 mi SSW 5.8 mph - N/A   Clear
10:55 PM 41.9 °F - 41.5 °F 99% 30.15 in 10.0 mi Calm Calm - N/A   Clear
11:55 PM 40.6 °F - 40.5 °F 99% 30.16 in 10.0 mi Calm Calm - N/A   Clear